Miscellaneous Local Product
Issued by NWS Hastings, NE

Home | Current Version | Previous Version | Graphics & Text | Print | Product List | Glossary On
Versions: 1 2 3 4 5 6 7 8 9 10 11 12 13 14 15 16 17 18 19 20 21 22 23 24 25 26 27 28 29 30 31 32 33 34 35 36 37 38 39 40 41 42 43 44 45 46 47 48 49 50
000
AXUS43 KGID 071902
MISGRI

GID CWA HOURLY WEATHER ROUNDUP
NATIONAL WEATHER SERVICE HASTINGS NE
200 PM CDT TUE JUL 07 2015

NOTE: "FAIR" INDICATES FEW OR NO CLOUDS BELOW 12,000 FEET WITH NO
SIGNIFICANT WEATHER AND/OR OBSTRUCTIONS TO VISIBILITY.

...SOUTH CENTRAL NEBRASKA...

CITY           SKY/WX    TMP DP  RH WIND       PRES   REMARKS
GRAND ISLAND   PTSUNNY   70  55  59 NE9       30.17F
HASTINGS       PTSUNNY   70  55  59 NE9       30.17F
KEARNEY        MOSUNNY   70  54  56 NE8       30.17F
ORD            MOSUNNY   74  53  48 NE9       30.15F
YORK           MOSUNNY   68  55  64 N14       30.16F
AURORA         MOSUNNY   70  55  58 NE9       30.17S
LEXINGTON      MOSUNNY   73  52  48 E10       30.17F
HOLDREGE       MOSUNNY   70  53  55 E13       30.17F
HEBRON         SUNNY     71  49  46 NE16G22   30.15F

...NEBRASKA PANHANDLE...

CITY           SKY/WX    TMP DP  RH WIND       PRES   REMARKS
CHADRON        CLOUDY    70  54  56 S15       30.12F
ALLIANCE       CLOUDY    66  54  65 S13       30.16F
SCOTTSBLUFF    CLOUDY    68  55  63 SE10      30.15F HAZE
SIDNEY         PTSUNNY   70  49  47 S14G25    30.19F

...WESTERN AND NORTH CENTRAL NEBRASKA...

CITY           SKY/WX    TMP DP  RH WIND       PRES   REMARKS
VALENTINE      MOSUNNY   74  54  49 VRB7      30.15F
AINSWORTH      MOSUNNY   73  55  54 E7        30.17S
ONEILL         MOSUNNY   68  55  63 E5        30.19F
BROKEN BOW     MOSUNNY   73  55  53 SE6       30.17F
IMPERIAL       MOSUNNY   76  47  35 SE9       30.17F
NORTH PLATTE   SUNNY     74  49  41 MISG      30.17F
MCCOOK         SUNNY     76  52  43 E12       30.16F

...EASTERN NEBRASKA...

CITY           SKY/WX    TMP DP  RH WIND       PRES   REMARKS
NORFOLK        SUNNY     70  52  52 NE12G20   30.16F
SO SIOUX CITY  SUNNY     70  48  45 NE13      30.15F
TEKAMAH        SUNNY     72  50  45 N16G22    30.14F
OMAHA EPPLEY   MOSUNNY   71  52  50 N13       30.13F
OFFUTT AFB     SUNNY     71  53  53 NE10      30.13F
MILLARD        SUNNY     69  51  52 MISG      30.13F
LINCOLN        SUNNY     72  50  45 NE13G21   30.15F
FALLS CITY     SUNNY     71  53  52 N10G17    30.10F

...NORTHERN KANSAS...

CITY           SKY/WX    TMP DP  RH WIND       PRES   REMARKS
GOODLAND       MOSUNNY   73  44  35 SE9       30.18F
HILL CITY      MOSUNNY   79  48  33 E16G22    30.15F HAZE
NORTON         CLEAR     75  43  31 N9G18     30.15F
PHILLIPSBURG   MOSUNNY   79  48  34 E10G21    30.14F
SMITH CENTER   MOSUNNY   73  52  46 NE14G24   30.15F
HAYS           SUNNY     75  48  38 NE16G23   30.13F
RUSSELL        SUNNY     75  50  41 NE15G23   30.12F
CONCORDIA      MOSUNNY   72  53  51 NE13      30.13F
SALINA         PTSUNNY   76  49  38 NE16G25   30.11F
TOPEKA         CLOUDY    69  58  67 N12       30.08F



USA.gov is the U.S. government's official web portal to all federal, state and local government web resources and services.